![](https://secure.gravatar.com/avatar/900f734c10632692418d1b47311b6af5.jpg?s=120&d=mm&r=g)
The following is an update on "who is who" for the May 17th and 18th, 2017 QB50 cubesat deployment from the International Space Station (ISS). Eleven of the satellites deployed are QB50 satellites. Not all satellites deployed are QB50 cubesats with amateur radio capability. The satellite names and the NORAD Cat IDs per SpaceTrack are as follows:
SOMP 2 Cat ID 42700 HAVELSAT Cat ID 42701 Columbia Cat ID 42702 PHOENIX Cat ID 42706 X-CubeSat Cat ID 42707 qbee Cat ID 42708 ZA-AeroSat 1 Cat ID 42713 LINK Cat ID 42714 UPSat Cat ID 42716 SpaceCube Cat ID 42717 Hoopoe Cat ID 42718
This is what SpaceTrack shows now. There is always the possiblity that we will need to change something.
LilacSat-1 was deployed today (Thursday, May 25,2017 at 08:45 GMT) from ISS. It is too close to the ISS to be assigned an object ID. Here are the TLEs (based on ISS TLEs) from the LilacSat website: http://lilacsat.hit.edu.cn/?page_id=594
LilacSat-1 1 25544U 98067A 17144.89781703 .00001573 00000-0 31242-4 0 9992 2 25544 51.6416 154.3996 0005308 189.3117 243.1127 15.53923882 58131
Note: The Catalog Number is not real.